| time (UTC) | temp F | wind direction | speed MPH | gust MPH | rain 1hr in | rain 24hr in | rain mn in | humidity % | barometer mb |
| 20260505041537 | 42 | 0 | 0.0 | 0.0 | 0.01 | 0.09 | 0.09 | 91 | 1013.2 |
| 20260505040039 | 42 | 0 | 0.0 | 0.0 | 0.00 | 0.08 | 0.08 | 90 | 1013.2 |
| 20260505034536 | 42 | 0 | 0.0 | 0.0 | 0.04 | 0.08 | 0.08 | 90 | 1012.7 |
| 20260505033037 | 43 | 0 | 0.0 | 0.0 | 0.05 | 0.08 | 0.08 | 87 | 1012.3 |
| 20260505031539 | 43 | 0 | 0.0 | 0.0 | 0.05 | 0.08 | 0.08 | 86 | 1012.5 |
| 20260505030037 | 44 | 0 | 0.0 | 4.0 | 0.05 | 0.08 | 0.08 | 87 | 1011.9 |
| 20260505024541 | 44 | 0 | 0.0 | 0.0 | 0.00 | 0.03 | 0.03 | 84 | 1012.0 |
| 20260505023035 | 44 | 0 | 0.0 | 0.0 | 0.00 | 0.03 | 0.03 | 82 | 1011.9 |
| 20260505021537 | 45 | 0 | 0.0 | 1.0 | 0.00 | 0.03 | 0.03 | 80 | 1011.5 |
| 20260505020037 | 45 | 274 | 0.0 | 2.0 | 0.00 | 0.03 | 0.03 | 78 | 1011.4 |
| 20260505014537 | 45 | 0 | 0.0 | 1.0 | 0.00 | 0.03 | 0.03 | 77 | 1011.5 |
| 20260505013036 | 46 | 0 | 0.0 | 3.0 | 0.00 | 0.03 | 0.03 | 75 | 1011.5 |
| 20260505011534 | 46 | 110 | 2.0 | 6.0 | 0.03 | 0.03 | 0.03 | 74 | 1011.7 |
| 20260505010038 | 47 | 103 | 4.0 | 8.0 | 0.03 | 0.03 | 0.03 | 73 | 1011.6 |
| 20260505004536 | 47 | 0 | 0.0 | 3.0 | 0.03 | 0.03 | 0.03 | 73 | 1011.6 |
| 20260505003035 | 48 | 0 | 0.0 | 8.0 | 0.03 | 0.03 | 0.03 | 75 | 1011.7 |
| 20260505001535 | 51 | 110 | 4.0 | 9.0 | 0.00 | 0.00 | 0.00 | 56 | 1011.8 |
| 20260505000043 | 53 | 282 | 1.0 | 7.0 | 0.00 | 0.00 | 0.00 | 52 | 1011.3 |
| 20260504234539 | 54 | 106 | 2.0 | 7.0 | 0.00 | 0.00 | 0.00 | 44 | 1010.7 |
| 20260504233042 | 54 | 295 | 2.0 | 7.0 | 0.00 | 0.00 | 0.00 | 42 | 1010.4 |
| 20260504231542 | 56 | 98 | 2.0 | 7.0 | 0.00 | 0.00 | 0.00 | 38 | 1010.1 |
| 20260504230046 | 59 | 108 | 2.0 | 9.0 | 0.00 | 0.00 | 0.00 | 33 | 1009.2 |
| 20260504224534 | 61 | 91 | 4.0 | 11.0 | 0.00 | 0.00 | 0.00 | 28 | 1008.7 |
| 20260504223038 | 62 | 316 | 3.0 | 8.0 | 0.00 | 0.00 | 0.00 | 29 | 1008.7 |
| 20260504221535 | 62 | 82 | 2.0 | 6.0 | 0.00 | 0.00 | 0.00 | 31 | 1008.9 |
| 20260504220038 | 62 | 51 | 6.0 | 13.0 | 0.00 | 0.00 | 0.00 | 29 | 1008.9 |
| 20260504214535 | 64 | 94 | 2.0 | 9.0 | 0.00 | 0.00 | 0.00 | 28 | 1008.8 |
| 20260504213035 | 64 | 3 | 2.0 | 7.0 | 0.00 | 0.00 | 0.00 | 29 | 1009.2 |
| 20260504211537 | 61 | 111 | 3.0 | 10.0 | 0.00 | 0.00 | 0.00 | 31 | 1009.3 |
| 20260504210043 | 61 | 36 | 2.0 | 6.0 | 0.00 | 0.00 | 0.00 | 32 | 1009.7 |
| 20260504204538 | 61 | 14 | 1.0 | 7.0 | 0.00 | 0.00 | 0.00 | 32 | 1009.4 |
| 20260504203050 | 61 | 316 | 3.0 | 8.0 | 0.00 | 0.00 | 0.00 | 31 | 1009.4 |
| 20260504201535 | 62 | 89 | 2.0 | 6.0 | 0.00 | 0.00 | 0.00 | 30 | 1009.5 |
| 20260504200035 | 62 | 357 | 2.0 | 10.0 | 0.00 | 0.00 | 0.00 | 29 | 1009.4 |
| 20260504194535 | 65 | 321 | 0.0 | 4.0 | 0.00 | 0.00 | 0.00 | 21 | 1009.1 |
| 20260504193035 | 67 | 139 | 5.0 | 10.0 | 0.00 | 0.00 | 0.00 | 20 | 1009.3 |
| 20260504191536 | 66 | 196 | 3.0 | 6.0 | 0.00 | 0.00 | 0.00 | 22 | 1009.6 |
| 20260504190047 | 67 | 311 | 2.0 | 10.0 | 0.00 | 0.00 | 0.00 | 24 | 1009.6 |
| 20260504184535 | 66 | 234 | 2.0 | 10.0 | 0.00 | 0.00 | 0.00 | 23 | 1009.7 |
| 20260504183037 | 69 | 0 | 2.0 | 7.0 | 0.00 | 0.00 | 0.00 | 19 | 1009.7 |
| 20260504181541 | 66 | 340 | 1.0 | 13.0 | 0.00 | 0.00 | 0.00 | 24 | 1010.1 |
| 20260504180036 | 63 | 308 | 4.0 | 7.0 | 0.00 | 0.00 | 0.00 | 21 | 1010.3 |
| 20260504174536 | 65 | 297 | 2.0 | 8.0 | 0.00 | 0.00 | 0.00 | 19 | 1010.3 |
| 20260504173035 | 63 | 0 | 2.0 | 9.0 | 0.00 | 0.00 | 0.00 | 23 | 1010.7 |
| 20260504171536 | 63 | 0 | 2.0 | 16.0 | 0.00 | 0.00 | 0.00 | 24 | 1010.9 |
| 20260504081540 | 32 | 0 | 0.0 | 0.0 | 0.00 | 0.00 | 0.00 | 71 | 1013.7 |